Weather in Fulda

Germany     50°32′43″N   9°40′30″E
temp.,
°C
wind,
m/s
gust,
m/s
humid.,
%
clouds,
%
prec.,
mm/h
press.,
hPa
HPBL,
m
19 april, mon
mon1923:00+6n2294100 0.2 102049
02:00+4nne229553 0.3 102028
05:00+2ne229517 0.0 101920
08:00+5ne238964 0.0 1020138
11:00+7e248298 0.0 1020694
14:00+9e237458 0.1 1019794
17:00+10ene3369100 0.3 1018863
20:00+7ne358539 0.4 1019108
20 april, tue
tue2023:00+4e11896 0.0 101910
02:00+3ese11875 0.0 101910
05:00+2ene00875 0.0 101910
08:00+5n018143 0.0 101966
11:00+9n1174100 0.0 1018328
14:00+12nnw116582 0.1 1016919
17:00+13nnw23637 0.6 10151133
20:00+9nw118390 2.1 101510
21 april, wed
wed2123:00+8sw118893 1.3 101610
02:00+5wsw009233 1.5 101610
05:00+4n009310 0.0 101610
08:00+7nnw01885 0.0 101671
11:00+12nnw34719 0.1 1015904
14:00+13nnw455197 0.5 10141891
17:00+13nnw455533 0.1 10141463
20:00+9nnw597092 0.1 1015554
22 april, thu
thu2223:00+5n487936 0.0 1018628
02:00+1n368765 0.0 1020162
05:00−1nnw2394100 0.0 102171
08:00+1nnw3876100 0.0 1021677
11:00+5nw5853100 0.0 10211427
14:00+8nw7945100 0.0 10202234
17:00+7nw795994 0.1 10201671
20:00+4nw38765 0.6 1021251
23 april, fri
fri2323:000wnw11865 0.0 102313
02:00−2nw11905 0.0 102512
05:00−2nw129487 0.0 102656
08:00+1n248397 0.0 1027529
11:00+6n22573 0.0 1027815
14:00+10n23435 0.0 10251680
17:00+10nne23415 0.0 10251797
20:00+6ne11640 0.0 102510